User: anonymous   Login
Location: Columbia
(38.9520°N, 92.3340°W)
Time: 07:43:08
(UTC-06:00)
Language:

FENGYUN 3A - Orbit

View from above orbital plane
View from above orbital plane
View from above satellite
View from above satellite

Ground track
Ground track

The orbit data is extracted from the following two-line orbital elements,

1 32958U 08026A   16346.17440351  .00000005  00000-0  21820-4 0  9990
2 32958  98.4310  18.0425 0010613 103.7927 256.4423 14.19642188442666
Epoch (UTC): 11 December 2016 04:11:08
Eccentricity: 0.0010613
inclination: 98.4310°
perigee height: 819 km
apogee height: 834 km
right ascension of ascending node: 18.0425°
argument of perigee: 103.7927°
revolutions per day: 14.19642188
mean anomaly at epoch: 256.4423°
orbit number at epoch: 44266

The dashed part of the orbit path shows where the satellite is in the earth's shadow,  

DLR